Regional Weather Roundup
Issued by NWS

Home | Current Version | Previous Version | Graphics & Text | Print | Product List | Glossary On
Versions: 1 2 3 4 5 6 7 8 9 10 11 12 13 14 15 16 17 18 19 20 21 22 23 24 25 26 27 28 29 30 31 32 33 34 35 36 37 38 39 40 41 42 43 44 45 46 47 48 49 50
000
ASUS43 KLOT 251458
RWRIL

ILLINOIS REGIONAL WEATHER ROUNDUP
NATIONAL WEATHER SERVICE CHICAGO/ROMEOVILLE IL
1000 AM CDT SAT OCT 25 2014

NOTE: "FAIR" INDICATES FEW OR NO CLOUDS BELOW 12,000 FEET WITH NO
SIGNIFICANT WEATHER AND/OR OBSTRUCTIONS TO VISIBILITY.

* THESE STATIONS ARE NOT UNDER NWS QUALITY CONTROL. THEY ALSO MAY NOT
  REPORT WEATHER SUCH AS PRECIPITATION OR FOG.

ILZ001-002-007-009-015-016-024-251600-
NORTHWEST ILLINOIS

CITY           SKY/WX    TMP DP  RH WIND       PRES   REMARKS
MOLINE         SUNNY     62  50  64 N5        30.02S
$$

ILZ003-004-008-010-011-017-018-251600-
NORTH CENTRAL ILLINOIS

CITY           SKY/WX    TMP DP  RH WIND       PRES   REMARKS
ROCKFORD       NOT AVBL
$$

ILZ005-006-012>014-019>023-251600-
NORTHEAST ILLINOIS

CITY           SKY/WX    TMP DP  RH WIND       PRES   REMARKS
CHICAGO-OHARE  MOSUNNY   63  51  65 NW12      29.93R
CHICAGO-MIDWAY MOSUNNY   64  54  69 W15       29.93S
AURORA         SUNNY     61  54  77 NW13      29.97S HAZE
WAUKEGAN       NOT AVBL
DUPAGE AIRPORT SUNNY     62  53  72 NW12      29.95R
WHEELING       SUNNY     65  50  58 NW13      29.96R
NORTHERLY ISL    N/A     62  52  69 W13         N/A
$$

LMZ740>746-251600-
SOUTHERN LAKE MICHIGAN

STATION/POSITION SKY/WX   TEMP    WIND        PRES    VSBY  WAVE
                          AIR SEA DIR/SP/G                  HT/PER
                          (F)     (DEG/KT/KT) (MB)    (MI)  (FT/S)
SOUTHERN BUOY              56 54  260/ 12/ 14 1011.8R         1/ 3
WAUKEGAN HARBOR            61     310/ 13/ 17   N/A
HARRISON CRIB              58     280/ 12/ 15   N/A
BURNHAM HARBOR             61     260/  8/ 12   N/A
CALUMET HARBOR             62     250/  5/  8 1012.3R
MICHIGAN CITY              55     210/ 13/ 14   N/A
$$

ILZ025>027-034>036-040-047-049-050-058-095>099-251600-
WEST-CENTRAL ILLINOIS

CITY           SKY/WX    TMP DP  RH WIND       PRES   REMARKS
QUINCY         FOG       59  58  96 W5        30.05R VSB 1
$$

ILZ028>032-037-038-041>044-048-051>054-059>061-251600-
CENTRAL ILLINOIS

CITY           SKY/WX    TMP DP  RH WIND       PRES   REMARKS
DECATUR        FOG       61  59  93 NW9       30.02S VSB 1
PEORIA         NOT AVBL
SPRINGFIELD    CLOUDY    65  60  84 W6        30.03R HAZE
TAYLORVILLE    NOT AVBL
$$

ILZ033-039-045-046-055>057-062-063-251600-
EAST-CENTRAL ILLINOIS

CITY           SKY/WX    TMP DP  RH WIND       PRES   REMARKS
CHAMPAIGN      SUNNY     62  57  83 W9        30.00S
$$

ILZ079-100>102-251600-
SOUTHWEST ILLINOIS

CITY           SKY/WX    TMP DP  RH WIND       PRES   REMARKS
CAHOKIA*       SUNNY     68  61  78 NW5       30.04S
$$

ILZ064>066-069>071-074>076-080>082-084>086-088>090-092>094-251600-
SOUTH-CENTRAL ILLINOIS

CITY           SKY/WX    TMP DP  RH WIND       PRES   REMARKS
CARBONDALE     SUNNY     68  60  75 NW5       30.05S
MARION         MOSUNNY   68  61  77 W12       30.06R
$$

ILZ067-068-072-073-078-083-087-091-251600-
SOUTHEAST ILLINOIS

CITY           SKY/WX    TMP DP  RH WIND       PRES   REMARKS
$$

ABBREVIATIONS USED IN REMARKS
   TC - TEMPERATURE IN CELSIUS
  WCI - WIND CHILL INDEX
   HX - HEAT INDEX
  VSB - VISIBILITY
$$




USA.gov is the U.S. government's official web portal to all federal, state and local government web resources and services.